User: anonymous   Login
Location: Unspecified
(0.0000°N, 0.0000°E)
Time: 23:59:50
(UTC+00:00)
Language:

TBA - TO BE ASSIGNED - Orbit

View from above orbital plane
View from above orbital plane
View from above satellite
View from above satellite

Ground track
Ground track

The orbit is defined by the following mean orbital elements,

1 67422U          26145.34611641 +.00000000 +00000-0 +48876-3 0 00004
2 67422  43.0025 164.7601 0001003 268.5552  91.5185 15.27590261    06
Epoch (UTC): 25 May 2026 08:18:24
Eccentricity: 0.0001003
inclination: 43.0025°
perigee height: 482 km
apogee height: 484 km
right ascension of ascending node: 164.7601°
argument of perigee: 268.5552°
revolutions per day: 15.27590261
mean anomaly at epoch: 91.5185°

The dashed part of the orbit path shows where the satellite is in the earth's shadow,  

DLR